SQ2CET-13 Weather Reports


time (UTC)temp
C
wind
direction
speed
KPH
gust
KPH
rain 1hr
cm
rain 24hr
cm
rain mn
cm
humidity
%
barometer
mb
20260509175106 13 68 1.6 4.8 0.00 0.00 0.00 41 1022.4
20260509174111 14 56 1.6 6.4 0.00 0.00 0.00 42 1022.4
20260509173031 14 59 3.2 8.0 0.00 0.00 0.00 42 1022.4
20260509172055 15 50 3.2 9.7 0.00 0.00 0.00 42 1022.5
20260509171110 16 51 3.2 4.8 0.00 0.00 0.00 41 1022.5
20260509170030 15 56 3.2 8.0 0.00 0.00 0.00 41 1022.6
20260509165054 15 49 3.2 6.4 0.00 0.00 0.00 43 1022.7
20260509164118 15 63 3.2 8.0 0.00 0.00 0.00 42 1022.6
20260509163032 15 73 1.6 8.0 0.00 0.00 0.00 39 1022.6
20260509162055 16 55 1.6 9.7 0.00 0.00 0.00 39 1022.7
20260509161119 16 37 3.2 6.4 0.00 0.00 0.00 39 1022.9
20260509160039 16 24 3.2 9.7 0.00 0.00 0.00 39 1022.9
20260509155102 16 47 3.2 8.0 0.00 0.00 0.00 39 1023.0
20260509154022 16 47 3.2 9.7 0.00 0.00 0.00 41 1022.9
20260509153032 16 52 3.2 17.7 0.00 0.00 0.00 39 1023.0
20260509152054 16 27 3.2 11.3 0.00 0.00 0.00 40 1023.0
20260509151120 17 62 4.8 8.0 0.00 0.00 0.00 40 1023.0
20260509150022 16 112 3.2 9.7 0.00 0.00 0.00 40 1022.9
20260509145051 17 19 4.8 11.3 0.00 0.00 0.00 38 1023.0
20260509144051 17 109 3.2 9.7 0.00 0.00 0.00 37 1022.9
20260509143111 17 96 3.2 11.3 0.00 0.00 0.00 36 1023.0
20260509142024 18 48 4.8 14.5 0.00 0.00 0.00 34 1022.8
20260509141041 18 39 3.2 12.9 0.00 0.00 0.00 33 1022.8
20260509140123 18 129 3.2 8.0 0.00 0.00 0.00 32 1022.7
20260509135120 18 78 4.8 11.3 0.00 0.00 0.00 33 1022.7
20260509134039 20 119 1.6 6.4 0.00 0.00 0.00 31 1022.8
20260509133142 18 32 3.2 14.5 0.00 0.00 0.00 32 1022.8
20260509132043 18 56 4.8 14.5 0.00 0.00 0.00 33 1022.7
20260509131040 19 46 4.8 16.1 0.00 0.00 0.00 32 1022.9
20260509130056 19 26 3.2 9.7 0.00 0.00 0.00 31 1023.0
20260509125119 19 22 3.2 8.0 0.00 0.00 0.00 31 1022.9
20260509124038 18 25 4.8 11.3 0.00 0.00 0.00 32 1022.9
20260509123103 19 33 3.2 8.0 0.00 0.00 0.00 31 1023.2
20260509122120 19 36 3.2 11.3 0.00 0.00 0.00 32 1023.1
20260509121039 18 68 3.2 9.7 0.00 0.00 0.00 33 1023.1
20260509115022 19 62 3.2 11.3 0.00 0.00 0.00 32 1023.1
20260509114047 18 64 3.2 9.7 0.00 0.00 0.00 32 1023.2
20260509113103 18 53 1.6 11.3 0.00 0.00 0.00 33 1023.2
20260509112023 18 38 4.8 9.7 0.00 0.00 0.00 33 1023.2
20260509111047 18 11 4.8 11.3 0.00 0.00 0.00 34 1023.2
20260509110110 18 37 3.2 9.7 0.00 0.00 0.00 34 1023.3
20260509105031 17 26 3.2 11.3 0.00 0.00 0.00 34 1023.3
20260509104051 17 59 1.6 9.7 0.00 0.00 0.00 36 1023.4
20260509103111 17 64 3.2 9.7 0.00 0.00 0.00 36 1023.5
20260509102024 17 57 3.2 9.7 0.00 0.00 0.00 35 1023.4
20260509101047 17 26 4.8 12.9 0.00 0.00 0.00 36 1023.5
20260509100131 17 34 4.8 9.7 0.00 0.00 0.00 35 1023.4
20260509095031 17 360 4.8 11.3 0.00 0.00 0.00 35 1023.6
20260509094055 16 40 3.2 9.7 0.00 0.00 0.00 37 1023.6
20260509093138 17 26 3.2 12.9 0.00 0.00 0.00 37 1023.6
20260509092038 16 40 3.2 11.3 0.00 0.00 0.00 38 1023.5
20260509091104 15 9 4.8 11.3 0.00 0.00 0.00 42 1023.5
20260509090121 16 15 3.2 9.7 0.00 0.00 0.00 42 1023.4
20260509085100 16 3 0.0 8.0 0.00 0.00 0.00 44 1023.4
20260509084103 15 350 3.2 9.7 0.00 0.00 0.00 46 1023.6
20260509083120 15 355 3.2 9.7 0.00 0.00 0.00 43 1023.5
20260509082032 15 11 3.2 6.4 0.00 0.00 0.00 49 1023.5
20260509081057 13 6 1.6 6.4 0.00 0.00 0.00 54 1023.5
20260509080118 13 19 3.2 6.4 0.00 0.00 0.00 57 1023.5
20260509075040 12 354 1.6 6.4 0.00 0.00 0.00 59 1023.6
20260509074102 12 352 1.6 6.4 0.00 0.00 0.00 60 1023.7
20260509073023 11 42 1.6 9.7 0.00 0.00 0.00 61 1023.7
20260509072039 11 358 3.2 8.0 0.00 0.00 0.00 62 1023.8
20260509071102 11 25 1.6 8.0 0.00 0.00 0.00 62 1023.8
20260509070022 11 349 3.2 6.4 0.00 0.00 0.00 64 1023.6
20260509065047 10 232 1.6 6.4 0.00 0.00 0.00 66 1023.6
20260509064111 10 260 0.0 4.8 0.00 0.00 0.00 71 1023.6
20260509063030 9 237 1.6 4.8 0.00 0.00 0.00 73 1023.6
20260509062054 9 16 0.0 4.8 0.00 0.00 0.00 75 1023.5
20260509061119 9 33 3.2 6.4 0.00 0.00 0.00 76 1023.5
20260509060039 9 338 1.6 4.8 0.00 0.00 0.00 78 1023.4
20260509055102 8 0.0 3.2 0.00 0.00 0.00 81 1023.3
20260509054024 7 250 3.2 8.0 0.00 0.00 0.00 83 1023.3
20260509053107 7 236 1.6 8.0 0.00 0.00 0.00 86 1023.4
20260509052110 7 241 3.2 6.4 0.00 0.00 0.00 85 1023.4
20260509051030 7 236 3.2 6.4 0.00 0.00 0.00 86 1023.4
20260509050039 6 244 3.2 6.4 0.00 0.00 0.00 87 1023.4
20260509045103 6 244 3.2 6.4 0.00 0.00 0.00 89 1023.3
20260509044024 5 245 3.2 6.4 0.00 0.00 0.00 90 1023.3
20260509043041 5 250 1.6 6.4 0.00 0.00 0.00 89 1023.4
20260509042104 6 207 0.0 3.2 0.00 0.00 0.00 91 1023.5
20260509041023 5 103 1.6 4.8 0.00 0.00 0.00 92 1023.6
20260509040039 3 184 1.6 4.8 0.00 0.00 0.00 93 1023.4
20260509035103 2 126 0.0 3.2 0.00 0.00 0.00 93 1023.3
20260509034023 3 227 0.0 3.2 0.00 0.00 0.00 93 1023.3
20260509033048 2 220 3.2 6.4 0.00 0.00 0.00 93 1023.3
20260509032112 2 0.0 3.2 0.00 0.00 0.00 93 1023.4
20260509031043 2 181 1.6 3.2 0.00 0.00 0.00 93 1023.3
20260509030047 3 184 1.6 3.2 0.00 0.00 0.00 93 1023.3
20260509025111 3 0.0 3.2 0.00 0.00 0.00 93 1023.3
20260509024031 2 226 1.6 3.2 0.00 0.00 0.00 93 1023.4
20260509023046 2 214 0.0 3.2 0.00 0.00 0.00 93 1023.5
20260509022112 3 0.0 3.2 0.00 0.00 0.00 93 1023.5
20260509021030 2 206 1.6 4.8 0.00 0.00 0.00 93 1023.5
20260509020056 3 185 1.6 3.2 0.00 0.00 0.00 93 1023.5
20260509015120 3 217 1.6 4.8 0.00 0.00 0.00 93 1023.4
20260509014040 3 162 0.0 4.8 0.00 0.00 0.00 93 1023.5
20260509013122 3 206 1.6 3.2 0.00 0.00 0.00 93 1023.4
20260509012022 3 335 0.0 3.2 0.00 0.00 0.00 93 1023.4
20260509011127 3 354 1.6 3.2 0.00 0.00 0.00 93 1023.4
20260509010110 3 204 1.6 4.8 0.00 0.00 0.00 93 1023.4
20260509005031 3 230 1.6 4.8 0.00 0.00 0.00 93 1023.4
20260509004052 2 0.0 0.0 0.00 0.00 0.00 93 1023.5
20260509003113 3 0.0 0.0 0.00 0.00 0.00 93 1023.5
20260509002110 3 0.0 1.6 0.00 0.00 0.00 93 1023.5
20260509001115 3 0.0 1.6 0.00 0.00 0.00 93 1023.5
20260509000111 3 242 1.6 3.2 0.00 0.00 0.00 93 1023.5
20260508235032 4 242 1.6 3.2 0.00 0.00 0.00 92 1023.6
20260508234056 4 242 1.6 3.2 0.00 0.00 0.00 92 1023.4
20260508233119 3 0.0 3.2 0.00 0.00 0.00 92 1023.5
20260508232039 4 230 0.0 3.2 0.00 0.00 0.00 92 1023.4
20260508231105 4 53 0.0 3.2 0.00 0.00 0.00 92 1023.5
20260508230023 5 245 0.0 4.8 0.00 0.00 0.00 92 1023.5
20260508225048 5 237 0.0 3.2 0.00 0.00 0.00 92 1023.7
20260508224112 5 0.0 1.6 0.00 0.00 0.00 92 1023.8
20260508223033 5 0.0 1.6 0.00 0.00 0.00 92 1023.6
20260508222055 5 201 0.0 3.2 0.00 0.00 0.00 92 1023.7
20260508221119 4 0.0 0.0 0.00 0.00 0.00 92 1023.6
20260508220039 4 0.0 0.0 0.00 0.00 0.00 92 1023.6
20260508215102 5 0.0 0.0 0.00 0.00 0.00 91 1023.6
20260508214023 4 0.0 0.0 0.00 0.00 0.00 91 1023.7
20260508213106 5 0.0 1.6 0.00 0.00 0.00 91 1023.6
20260508212111 5 0.0 0.0 0.00 0.00 0.00 90 1023.7
20260508211032 6 0.0 0.0 0.00 0.00 0.00 90 1023.6
20260508210054 6 203 0.0 1.6 0.00 0.00 0.00 90 1023.6
20260508205120 6 0.0 0.0 0.00 0.00 0.00 90 1023.5
20260508204100 6 219 0.0 3.2 0.00 0.00 0.00 90 1023.4
20260508203103 5 0.0 0.0 0.00 0.00 0.00 89 1023.4
20260508202104 5 0.0 1.6 0.00 0.00 0.00 89 1023.3
20260508201047 5 0.0 0.0 0.00 0.00 0.00 89 1023.3
20260508200110 6 0.0 0.0 0.00 0.00 0.00 88 1023.3
20260508195031 6 0.0 0.0 0.00 0.00 0.00 87 1023.3
20260508194115 6 0.0 1.6 0.00 0.00 0.00 87 1023.3
20260508193118 6 0.0 0.0 0.00 0.00 0.00 86 1023.3
20260508192100 6 0.0 1.6 0.00 0.00 0.00 85 1023.2
20260508191104 7 1 1.6 4.8 0.00 0.00 0.00 83 1023.3
20260508190023 7 338 0.0 4.8 0.00 0.00 0.00 81 1023.2
20260508185046 7 0.0 3.2 0.00 0.00 0.00 79 1023.2
20260508184110 8 17 0.0 3.2 0.00 0.00 0.00 77 1023.1
20260508183051 8 0.0 3.2 0.00 0.00 0.00 74 1023.1
20260508182117 9 0.0 4.8 0.00 0.00 0.00 72 1022.9
20260508181138 10 269 3.2 4.8 0.00 0.00 0.00 69 1022.8
20260508180059 10 12 1.6 11.3 0.00 0.00 0.00 65 1022.9